GW0828 Weather Reports


Display with metric or nautical units.
time (UTC)temp
F
wind
direction
speed
MPH
gust
MPH
rain 1hr
in
rain 24hr
in
rain mn
in
humidity
%
barometer
mb
20260504214551 62 264 4.0 9.0 0.00 0.00 0.00 39 1009.0
20260504214040 63 263 3.0 15.0 0.00 0.00 0.00 40 1008.9
20260504213540 63 315 3.0 15.0 0.00 0.00 0.00 40 1008.8
20260504213050 63 254 6.0 15.0 0.00 0.00 0.00 39 1008.6
20260504212539 62 284 5.0 12.0 0.00 0.00 0.00 38 1008.3
20260504212039 62 309 3.0 14.0 0.00 0.00 0.00 39 1008.4
20260504211552 62 260 6.0 18.0 0.00 0.00 0.00 39 1008.2
20260504211038 62 290 8.0 18.0 0.00 0.00 0.00 40 1008.4
20260504210538 62 287 8.0 20.0 0.00 0.00 0.00 39 1008.7
20260504210105 62 246 11.0 20.0 0.00 0.00 0.00 38 1008.8
20260504205539 63 265 5.0 12.0 0.00 0.00 0.00 38 1009.1
20260504205041 62 342 5.0 12.0 0.00 0.00 0.00 39 1009.1
20260504204553 62 360 5.0 14.0 0.00 0.00 0.00 39 1009.2
20260504204038 62 308 4.0 14.0 0.00 0.00 0.00 39 1009.1
20260504203538 62 347 7.0 14.0 0.00 0.00 0.00 38 1009.1
20260504203053 62 42 6.0 12.0 0.00 0.00 0.00 38 1009.4
20260504202538 62 22 4.0 18.0 0.00 0.00 0.00 37 1009.3
20260504202038 62 17 6.0 18.0 0.00 0.00 0.00 38 1009.5
20260504201550 62 69 11.0 18.0 0.00 0.00 0.00 37 1009.6
20260504201038 62 347 5.0 15.0 0.00 0.00 0.00 44 1009.7
20260504200539 62 347 5.0 27.0 0.00 0.00 0.00 40 1009.7
20260504200059 62 47 9.0 27.0 0.00 0.00 0.00 40 1009.6
20260504195538 62 32 10.0 27.0 0.00 0.00 0.00 38 1009.6
20260504195038 63 358 8.0 16.0 0.00 0.00 0.00 39 1009.3
20260504194607 63 31 4.0 12.0 0.00 0.00 0.00 40 1009.4
20260504194038 63 15 3.0 16.0 0.00 0.00 0.00 38 1009.2
20260504193538 63 9 8.0 16.0 0.00 0.00 0.00 33 1008.9
20260504193058 63 33 8.0 18.0 0.00 0.00 0.00 35 1008.5
20260504192538 63 77 9.0 18.0 0.00 0.00 0.00 35 1008.2
20260504192038 63 2 7.0 22.0 0.00 0.00 0.00 36 1008.5
20260504191552 64 339 10.0 22.0 0.00 0.00 0.00 35 1008.5
20260504191038 65 327 7.0 17.0 0.00 0.00 0.00 30 1008.4
20260504190538 65 15 4.0 17.0 0.00 0.00 0.00 28 1007.9
20260504190117 66 352 6.0 19.0 0.00 0.00 0.00 29 1007.9
20260504185537 67 10 10.0 19.0 0.00 0.00 0.00 26 1007.9
20260504185038 68 36 11.0 17.0 0.00 0.00 0.00 25 1007.7
20260504184558 69 35 5.0 9.0 0.00 0.00 0.00 26 1007.7
20260504184038 69 17 4.0 10.0 0.00 0.00 0.00 23 1007.6
20260504183538 69 40 4.0 14.0 0.00 0.00 0.00 23 1007.5
20260504183050 69 19 5.0 14.0 0.00 0.00 0.00 23 1007.5
20260504182538 70 36 6.0 15.0 0.00 0.00 0.00 23 1007.5
20260504182038 70 312 6.0 15.0 0.00 0.00 0.00 22 1007.6
20260504181558 70 294 7.0 18.0 0.00 0.00 0.00 23 1007.5
20260504181038 71 19 7.0 18.0 0.00 0.00 0.00 23 1007.7
20260504180539 71 352 5.0 13.0 0.00 0.00 0.00 23 1007.5
20260504180143 71 18 4.0 12.0 0.00 0.00 0.00 21 1007.7
20260504175540 71 35 5.0 15.0 0.00 0.00 0.00 21 1007.5
20260504175038 72 4 5.0 17.0 0.00 0.00 0.00 19 1007.7
20260504174549 73 296 2.0 17.0 0.00 0.00 0.00 24 1007.8
20260504174040 72 21 7.0 18.0 0.00 0.00 0.00 21 1007.9
20260504173538 72 317 7.0 18.0 0.00 0.00 0.00 21 1007.9
20260504173108 72 333 7.0 17.0 0.00 0.00 0.00 21 1007.9
20260504172538 72 342 5.0 13.0 0.00 0.00 0.00 21 1007.9
20260504172038 73 313 6.0 12.0 0.00 0.00 0.00 21 1007.9
20260504171556 72 274 3.0 8.0 0.00 0.00 0.00 24 1008.0
20260504171041 72 246 1.0 11.0 0.00 0.00 0.00 26 1007.9
20260504170539 72 352 3.0 11.0 0.00 0.00 0.00 21 1008.0
20260504151038 57 0 0.0 3.0 0.00 0.00 0.00 45 1008.8
20260504150538 56 247 0.0 3.0 0.00 0.00 0.00 40 1008.8
20260504141037 48 325 1.0 4.0 0.00 0.00 0.00 55 1009.2
20260504140538 48 329 1.0 4.0 0.00 0.00 0.00 59 1009.2
20260504140112 47 358 0.0 4.0 0.00 0.00 0.00 60 1009.1
20260504130540 44 244 1.0 3.0 0.00 0.00 0.00 61 1009.2
20260504120110 41 0 0.0 1.0 0.00 0.00 0.00 60 1009.1
20260504110538 42 0 0.0 3.0 0.00 0.00 0.00 58 1009.4
20260504100542 44 347 1.0 3.0 0.00 0.00 0.00 60 1009.6
20260504081546 46 324 1.0 4.0 0.00 0.00 0.00 55 1010.5
20260504081039 47 360 1.0 3.0 0.00 0.00 0.00 56 1010.5
20260504080537 47 0 0.0 3.0 0.00 0.00 0.00 57 1010.4
20260504050537 57 317 2.0 5.0 0.00 0.00 0.00 36 1011.5
20260504050117 57 266 2.0 9.0 0.00 0.00 0.00 37 1011.5
20260504045537 58 347 2.0 9.0 0.00 0.00 0.00 36 1011.4
20260504045040 58 19 4.0 14.0 0.00 0.00 0.00 34 1011.5
20260504044545 59 347 3.0 14.0 0.00 0.00 0.00 33 1011.6
20260504044037 59 44 7.0 14.0 0.00 0.00 0.00 34 1011.4
20260504043538 58 306 5.0 10.0 0.00 0.00 0.00 34 1011.6
20260504043047 59 329 2.0 18.0 0.00 0.00 0.00 34 1011.6
20260504042538 59 246 4.0 21.0 0.00 0.00 0.00 33 1011.3
20260504042037 60 135 9.0 21.0 0.00 0.00 0.00 34 1011.0
20260504041548 60 86 8.0 16.0 0.00 0.00 0.00 33 1010.9
20260504041038 61 2 6.0 16.0 0.00 0.00 0.00 32 1011.1
20260504040537 61 79 7.0 22.0 0.00 0.00 0.00 32 1011.0
20260504040048 61 44 10.0 22.0 0.00 0.00 0.00 31 1011.3
20260504035540 61 22 10.0 23.0 0.00 0.00 0.00 31 1011.3
20260504035040 61 39 13.0 23.0 0.00 0.00 0.00 31 1011.2
20260504034550 61 83 9.0 20.0 0.00 0.00 0.00 32 1011.3
20260504034040 62 55 12.0 20.0 0.00 0.00 0.00 30 1011.5
20260504033540 63 33 8.0 21.0 0.00 0.00 0.00 28 1011.2
20260504033047 63 6 10.0 21.0 0.00 0.00 0.00 27 1011.1
20260504032538 64 79 7.0 20.0 0.00 0.00 0.00 27 1010.9
20260504032040 63 94 13.0 20.0 0.00 0.00 0.00 25 1010.7
20260504031603 63 76 7.0 14.0 0.00 0.00 0.00 25 1010.8
20260504031037 63 66 5.0 11.0 0.00 0.00 0.00 26 1010.9
20260504030538 62 1 5.0 11.0 0.00 0.00 0.00 27 1010.9
20260504030050 62 43 5.0 11.0 0.00 0.00 0.00 32 1010.9
20260504025538 62 0 1.0 6.0 0.00 0.00 0.00 32 1010.6
20260504025038 62 43 0.0 8.0 0.00 0.00 0.00 33 1010.4
20260504024546 62 35 4.0 8.0 0.00 0.00 0.00 33 1010.5
20260504024037 63 36 2.0 4.0 0.00 0.00 0.00 32 1010.4
20260504023537 63 135 0.0 2.0 0.00 0.00 0.00 35 1010.2
20260504023049 64 135 0.0 2.0 0.00 0.00 0.00 33 1010.2
20260504022540 64 0 0.0 2.0 0.00 0.00 0.00 34 1010.3
20260504022036 65 135 1.0 3.0 0.00 0.00 0.00 31 1010.2
20260504021546 65 135 1.0 3.0 0.00 0.00 0.00 26 1010.2
20260504021036 65 128 2.0 3.0 0.00 0.00 0.00 27 1010.1
20260504020538 65 0 1.0 3.0 0.00 0.00 0.00 27 1010.2
20260504020045 65 324 0.0 4.0 0.00 0.00 0.00 28 1010.2
20260504015537 65 0 0.0 5.0 0.00 0.00 0.00 26 1010.2
20260504015037 66 127 3.0 5.0 0.00 0.00 0.00 26 1009.9
20260504014549 66 111 0.0 3.0 0.00 0.00 0.00 26 1010.1
20260504014037 67 335 0.0 2.0 0.00 0.00 0.00 26 1010.1
20260504013537 67 6 0.0 1.0 0.00 0.00 0.00 25 1010.1
20260504013051 67 0 0.0 3.0 0.00 0.00 0.00 26 1010.0
20260504012537 67 0 0.0 3.0 0.00 0.00 0.00 27 1010.0
20260504012036 68 17 0.0 6.0 0.00 0.00 0.00 24 1010.1
20260504011553 68 0 1.0 6.0 0.00 0.00 0.00 24 1010.1
20260504011037 68 136 1.0 5.0 0.00 0.00 0.00 22 1010.1
20260504010538 68 140 2.0 6.0 0.00 0.00 0.00 22 1010.0
20260504010047 69 91 3.0 6.0 0.00 0.00 0.00 22 1010.1
20260504005537 69 125 2.0 4.0 0.00 0.00 0.00 21 1010.1
20260504005037 70 0 0.0 3.0 0.00 0.00 0.00 22 1010.2
20260504004545 70 142 0.0 4.0 0.00 0.00 0.00 19 1010.2
20260504004037 70 122 0.0 4.0 0.00 0.00 0.00 20 1010.3
20260504003537 70 155 1.0 4.0 0.00 0.00 0.00 20 1010.3
20260504003047 70 127 1.0 3.0 0.00 0.00 0.00 21 1010.4
20260504002537 70 0 0.0 5.0 0.00 0.00 0.00 18 1010.3
20260504002037 70 192 1.0 8.0 0.00 0.00 0.00 19 1010.3
20260504001559 70 196 3.0 8.0 0.00 0.00 0.00 19 1010.4
20260504001037 71 174 3.0 7.0 0.00 0.00 0.00 20 1010.4
20260504000538 71 181 2.0 5.0 0.00 0.00 0.00 20 1010.5
20260504000058 71 0 0.0 4.0 0.00 0.00 0.00 21 1010.6
20260503235537 71 208 1.0 9.0 0.00 0.00 0.00 19 1010.7
20260503235037 71 202 2.0 9.0 0.00 0.00 0.00 19 1010.8
20260503234551 72 238 5.0 11.0 0.00 0.00 0.00 18 1010.8
20260503234040 72 235 4.0 11.0 0.00 0.00 0.00 17 1010.9
20260503233536 72 241 3.0 11.0 0.00 0.00 0.00 16 1010.8
20260503233050 72 258 5.0 11.0 0.00 0.00 0.00 16 1010.7
20260503232534 72 281 5.0 12.0 0.00 0.00 0.00 16 1010.7
20260503232036 72 248 5.0 12.0 0.00 0.00 0.00 16 1010.6
20260503231555 72 233 6.0 12.0 0.00 0.00 0.00 16 1010.4
20260503231038 72 280 6.0 10.0 0.00 0.00 0.00 17 1010.5
20260503230539 72 314 2.0 8.0 0.00 0.00 0.00 18 1010.4
20260503230051 72 266 3.0 8.0 0.00 0.00 0.00 17 1010.4
20260503225537 72 305 2.0 6.0 0.00 0.00 0.00 17 1010.5
20260503225037 72 278 2.0 9.0 0.00 0.00 0.00 18 1010.5
20260503224553 72 336 2.0 9.0 0.00 0.00 0.00 17 1010.6
20260503224037 73 9 2.0 9.0 0.00 0.00 0.00 20 1010.6
20260503223537 72 342 3.0 9.0 0.00 0.00 0.00 19 1010.6
20260503223047 72 290 2.0 11.0 0.00 0.00 0.00 17 1010.7
20260503222536 72 310 2.0 11.0 0.00 0.00 0.00 18 1010.7
20260503222037 72 325 2.0 13.0 0.00 0.00 0.00 17 1010.8
20260503221550 72 316 5.0 13.0 0.00 0.00 0.00 18 1010.8
20260503221040 72 312 5.0 11.0 0.00 0.00 0.00 18 1010.9
20260503220537 72 8 3.0 11.0 0.00 0.00 0.00 17 1011.1
20260503220049 72 331 3.0 9.0 0.00 0.00 0.00 19 1011.1
20260503215536 72 33 4.0 12.0 0.00 0.00 0.00 19 1011.2
20260503215037 73 267 3.0 16.0 0.00 0.00 0.00 20 1011.2